Find Kosmos-858

NORAD ID: 9443 Int'l Des: 1976-098 Owner: GUKOSR Country: SU operational
LEOCIRCULAR

リアルタイム位置

3D地球を読み込み中...

Kosmos-858について

説明を読み込み中...

次回通過

Passes for default location (London). Set your location on the main map for personalized predictions.

高度履歴

Loading altitude history...

軌道要素

1 9443U 76098A 26106.70215970 .00000056 00000-0 28663-4 0 9996
2 9443 74.0476 270.7901 0013143 42.1487 318.0673 14.35112949589935
Epoch: Apr 16, 2026 • Age: 26 hours

現在のステータス

高度 782.0 km
速度 7.47 km/s
衛星直下点 53.27°N, 57.27°W
タイプ other

Most Searched